Year,Month,Day,Hour,Minute,Value (Times are PST for temperature in C)
2008,08,15,00,00,18.70
2008,08,15,00,01,18.60
2008,08,15,00,02,18.60
2008,08,15,00,03,18.60
2008,08,15,00,04,18.60
2008,08,15,00,05,18.60
2008,08,15,00,06,18.60
2008,08,15,00,07,18.60
2008,08,15,00,08,18.60
2008,08,15,00,09,18.60
2008,08,15,00,10,18.60
2008,08,15,00,11,18.60
2008,08,15,00,12,18.60
2008,08,15,00,13,18.60
2008,08,15,01,02,19.40
2008,08,15,01,03,19.50
2008,08,15,01,04,19.50
2008,08,15,01,05,19.60
2008,08,15,01,06,19.60
2008,08,15,01,07,19.60
2008,08,15,01,08,19.60
2008,08,15,01,09,19.60
2008,08,15,01,10,19.60
2008,08,15,01,11,19.60
2008,08,15,01,12,19.60
2008,08,15,01,13,19.50
2008,08,15,01,14,19.50
2008,08,15,01,15,19.50
2008,08,15,01,16,19.50
2008,08,15,01,17,19.40
2008,08,15,01,18,19.40
2008,08,15,01,19,19.50
2008,08,15,01,20,19.50
2008,08,15,01,21,19.50
2008,08,15,01,22,19.40
2008,08,15,01,23,19.40
2008,08,15,01,24,19.40
2008,08,15,01,25,19.40
2008,08,15,01,26,19.40
2008,08,15,01,27,19.30
2008,08,15,01,28,19.30
2008,08,15,01,29,19.30
2008,08,15,01,30,19.30
2008,08,15,01,31,19.30
2008,08,15,01,32,19.30
2008,08,15,01,33,19.30
2008,08,15,01,34,19.40
2008,08,15,01,35,19.40
2008,08,15,01,36,19.40
2008,08,15,01,37,19.40
2008,08,15,01,38,19.50
2008,08,15,01,39,19.50
2008,08,15,01,40,19.50
2008,08,15,01,41,19.50
2008,08,15,01,42,19.40
2008,08,15,01,43,19.40
2008,08,15,01,44,19.50
2008,08,15,01,45,19.50
2008,08,15,01,46,19.50
2008,08,15,01,47,19.50
2008,08,15,01,48,19.50
2008,08,15,01,49,19.50
2008,08,15,01,50,19.40
2008,08,15,01,51,19.40
2008,08,15,01,52,19.40
2008,08,15,01,53,19.40
2008,08,15,01,54,19.40
2008,08,15,01,55,19.30
2008,08,15,01,56,19.30
2008,08,15,01,57,19.30
2008,08,15,01,58,19.30
2008,08,15,01,59,19.30
2008,08,15,02,00,19.30
2008,08,15,02,01,19.30
2008,08,15,02,02,19.30
2008,08,15,02,03,19.30
2008,08,15,02,04,19.30
2008,08,15,02,05,19.30
2008,08,15,02,06,19.20
2008,08,15,02,07,19.20
2008,08,15,02,08,19.20
2008,08,15,02,09,19.20
2008,08,15,02,10,19.20
2008,08,15,02,11,19.20
2008,08,15,02,12,19.20
2008,08,15,02,13,19.10
2008,08,15,02,14,19.10
2008,08,15,02,15,19.10
2008,08,15,02,16,19.10
2008,08,15,02,17,19.10
2008,08,15,02,18,19.10
2008,08,15,02,19,19.10
2008,08,15,02,20,19.10
2008,08,15,02,21,19.10
2008,08,15,02,22,19.10
2008,08,15,02,23,19.10
2008,08,15,02,24,19.10
2008,08,15,02,25,19.00
2008,08,15,02,26,19.00
2008,08,15,02,27,19.00
2008,08,15,02,28,19.00
2008,08,15,02,29,18.90
2008,08,15,02,30,18.90
2008,08,15,02,31,18.90
2008,08,15,02,32,18.90
2008,08,15,02,33,18.90
2008,08,15,02,34,18.90
2008,08,15,02,35,18.90
2008,08,15,02,36,18.90
2008,08,15,02,37,18.90
2008,08,15,02,38,18.90
2008,08,15,02,39,18.90
2008,08,15,02,40,18.90
2008,08,15,02,41,18.90
2008,08,15,02,42,18.90
2008,08,15,02,43,18.90
2008,08,15,02,44,18.90
2008,08,15,02,45,18.90
2008,08,15,02,46,18.90
2008,08,15,02,47,18.90
2008,08,15,02,48,18.80
2008,08,15,02,49,18.80
2008,08,15,02,50,18.80
2008,08,15,02,51,18.80
2008,08,15,02,52,18.80
2008,08,15,02,53,18.80
2008,08,15,02,54,18.70
2008,08,15,02,55,18.70
2008,08,15,02,56,18.70
2008,08,15,02,57,18.70
2008,08,15,02,58,18.70
2008,08,15,02,59,18.60
2008,08,15,03,00,18.60
2008,08,15,03,01,18.60
2008,08,15,03,02,18.60
2008,08,15,03,03,18.50
2008,08,15,03,04,18.50
2008,08,15,03,05,18.50
2008,08,15,03,06,18.40
2008,08,15,03,07,18.40
2008,08,15,03,08,18.40
2008,08,15,03,09,18.40
2008,08,15,03,10,18.40
2008,08,15,03,11,18.30
2008,08,15,03,12,18.30
2008,08,15,03,13,18.30
2008,08,15,03,14,18.30
2008,08,15,03,15,18.30
2008,08,15,03,16,18.20
2008,08,15,03,17,18.20
2008,08,15,03,18,18.20
2008,08,15,03,19,18.20
2008,08,15,03,20,18.20
2008,08,15,03,21,18.20
2008,08,15,03,22,18.20
2008,08,15,03,23,18.20
2008,08,15,03,24,18.10
2008,08,15,03,25,18.10
2008,08,15,03,26,18.10
2008,08,15,03,27,18.10
2008,08,15,03,28,18.00
2008,08,15,03,29,18.00
2008,08,15,03,30,18.00
2008,08,15,03,31,18.00
2008,08,15,03,32,17.90
2008,08,15,03,33,17.90
2008,08,15,03,34,17.90
2008,08,15,03,35,17.90
2008,08,15,03,36,17.90
2008,08,15,03,37,17.80
2008,08,15,03,38,17.80
2008,08,15,03,39,17.80
2008,08,15,03,40,17.80
2008,08,15,03,41,17.80
2008,08,15,03,42,17.80
2008,08,15,03,43,17.80
2008,08,15,03,44,17.90
2008,08,15,03,45,17.90
2008,08,15,03,46,17.90
2008,08,15,03,47,17.90
2008,08,15,03,48,17.90
2008,08,15,03,49,17.90
2008,08,15,03,50,17.90
2008,08,15,03,51,17.90
2008,08,15,03,52,17.90
2008,08,15,03,53,17.80
2008,08,15,03,54,17.80
2008,08,15,03,55,17.80
2008,08,15,03,56,17.80
2008,08,15,03,57,17.80
2008,08,15,03,58,17.80
2008,08,15,03,59,17.70
2008,08,15,04,00,17.70
2008,08,15,04,01,17.70
2008,08,15,04,02,17.70
2008,08,15,04,03,17.70
2008,08,15,04,04,17.70
2008,08,15,04,05,17.60
2008,08,15,04,06,17.60
2008,08,15,04,07,17.60
2008,08,15,04,08,17.60
2008,08,15,04,09,17.60
2008,08,15,04,10,17.60
2008,08,15,04,11,17.60
2008,08,15,04,12,17.60
2008,08,15,04,13,17.60
2008,08,15,04,14,17.50
2008,08,15,04,15,17.50
2008,08,15,04,16,17.50
2008,08,15,04,17,17.50
2008,08,15,04,18,17.50
2008,08,15,04,19,17.50
2008,08,15,04,20,17.50
2008,08,15,04,21,17.40
2008,08,15,04,22,17.40
2008,08,15,04,23,17.40
2008,08,15,04,24,17.40
2008,08,15,04,25,17.40
2008,08,15,04,26,17.40
2008,08,15,04,27,17.40
2008,08,15,04,28,17.40
2008,08,15,04,29,17.40
2008,08,15,04,30,17.40
2008,08,15,04,31,17.40
2008,08,15,04,32,17.40
2008,08,15,04,33,17.40
2008,08,15,04,34,17.30
2008,08,15,04,35,17.30
2008,08,15,04,36,17.30
2008,08,15,04,37,17.30
2008,08,15,04,38,17.30
2008,08,15,04,39,17.30
2008,08,15,04,40,17.30
2008,08,15,04,41,17.30
2008,08,15,04,42,17.30
2008,08,15,04,43,17.30
2008,08,15,04,44,17.30
2008,08,15,04,45,17.30
2008,08,15,04,46,17.30
2008,08,15,04,47,17.30
2008,08,15,04,48,17.30
2008,08,15,04,49,17.30
2008,08,15,04,50,17.20
2008,08,15,04,51,17.20
2008,08,15,04,52,17.20
2008,08,15,04,53,17.20
2008,08,15,04,54,17.20
2008,08,15,04,55,17.20
2008,08,15,04,56,17.20
2008,08,15,04,57,17.20
2008,08,15,04,58,17.20
2008,08,15,04,59,17.20
2008,08,15,05,00,17.20
2008,08,15,05,01,17.20
2008,08,15,05,02,17.20
2008,08,15,05,03,17.20
2008,08,15,05,04,17.20
2008,08,15,05,05,17.20
2008,08,15,05,06,17.10
2008,08,15,05,07,17.10
2008,08,15,05,08,17.10
2008,08,15,05,09,17.10
2008,08,15,05,10,17.10
2008,08,15,05,11,17.10
2008,08,15,05,12,17.10
2008,08,15,05,13,17.10
2008,08,15,05,14,17.10
2008,08,15,05,15,17.10
2008,08,15,05,16,17.10
2008,08,15,05,17,17.10
2008,08,15,05,18,17.10
2008,08,15,05,19,17.10
2008,08,15,05,20,17.10
2008,08,15,05,21,17.00
2008,08,15,05,22,17.00
2008,08,15,05,23,17.00
2008,08,15,05,24,17.00
2008,08,15,05,25,17.00
2008,08,15,05,26,17.00
2008,08,15,05,27,17.00
2008,08,15,05,28,17.00
2008,08,15,05,29,16.90
2008,08,15,05,30,16.90
2008,08,15,05,31,16.90
2008,08,15,05,32,16.90
2008,08,15,05,33,16.90
2008,08,15,05,34,16.90
2008,08,15,05,35,16.90
2008,08,15,05,36,16.90
2008,08,15,05,37,16.90
2008,08,15,05,38,16.90
2008,08,15,05,39,16.90
2008,08,15,05,40,16.90
2008,08,15,05,41,16.90
2008,08,15,05,42,16.90
2008,08,15,05,43,16.90
2008,08,15,05,44,16.90
2008,08,15,05,45,16.90
2008,08,15,05,46,16.90
2008,08,15,05,47,16.90
2008,08,15,05,48,16.90
2008,08,15,05,49,16.80
2008,08,15,05,50,16.80
2008,08,15,05,51,16.80
2008,08,15,05,52,16.80
2008,08,15,05,53,16.80
2008,08,15,05,54,16.80
2008,08,15,05,55,16.80
2008,08,15,05,56,16.80
2008,08,15,05,57,16.80
2008,08,15,05,58,16.80
2008,08,15,05,59,16.80
2008,08,15,06,00,16.80
2008,08,15,06,01,16.80
2008,08,15,06,02,16.80
2008,08,15,06,03,16.80
2008,08,15,06,04,16.80
2008,08,15,06,05,16.80
2008,08,15,06,06,16.80
2008,08,15,06,07,16.80
2008,08,15,06,08,16.80
2008,08,15,06,09,16.80
2008,08,15,06,10,16.80
2008,08,15,06,11,16.80
2008,08,15,06,12,16.80
2008,08,15,06,13,16.80
2008,08,15,06,14,16.80
2008,08,15,06,15,16.80
2008,08,15,06,16,16.80
2008,08,15,06,17,16.80
2008,08,15,06,18,16.80
2008,08,15,06,19,16.80
2008,08,15,06,20,16.70
2008,08,15,06,21,16.70
2008,08,15,06,22,16.70
2008,08,15,06,23,16.70
2008,08,15,06,24,16.70
2008,08,15,06,25,16.70
2008,08,15,06,26,16.70
2008,08,15,06,27,16.70
2008,08,15,06,28,16.70
2008,08,15,06,29,16.70
2008,08,15,06,30,16.70
2008,08,15,06,31,16.70
2008,08,15,06,32,16.70
2008,08,15,06,33,16.70
2008,08,15,06,34,16.80
2008,08,15,06,35,16.80
2008,08,15,06,36,16.80
2008,08,15,06,37,16.80
2008,08,15,06,38,16.80
2008,08,15,06,39,16.80
2008,08,15,06,40,16.80
2008,08,15,06,41,16.80
2008,08,15,06,42,16.80
2008,08,15,06,43,16.80
2008,08,15,06,44,16.80
2008,08,15,06,45,16.80
2008,08,15,06,46,16.80
2008,08,15,06,47,16.80
2008,08,15,06,48,16.80
2008,08,15,06,49,16.80
2008,08,15,06,50,16.80
2008,08,15,06,51,16.80
2008,08,15,06,52,16.80
2008,08,15,06,53,16.80
2008,08,15,06,54,16.80
2008,08,15,06,55,16.80
2008,08,15,06,56,16.80
2008,08,15,06,57,16.80
2008,08,15,06,58,16.80
2008,08,15,06,59,16.80
2008,08,15,07,00,16.80
2008,08,15,07,01,16.80
2008,08,15,07,02,16.80
2008,08,15,07,03,16.80
2008,08,15,07,04,16.80
2008,08,15,07,05,16.80
2008,08,15,07,06,16.80
2008,08,15,07,07,16.80
2008,08,15,07,08,16.80
2008,08,15,07,09,16.80
2008,08,15,07,10,16.80
2008,08,15,07,11,16.80
2008,08,15,07,12,16.80
2008,08,15,07,13,16.90
2008,08,15,07,14,16.90
2008,08,15,07,15,16.90
2008,08,15,07,16,16.90
2008,08,15,07,17,16.90
2008,08,15,07,18,16.90
2008,08,15,07,19,16.90
2008,08,15,07,20,16.90
2008,08,15,07,21,16.90
2008,08,15,07,22,16.90
2008,08,15,07,23,16.90
2008,08,15,07,24,16.90
2008,08,15,07,25,17.00
2008,08,15,07,26,17.00
2008,08,15,07,27,17.00
2008,08,15,07,28,17.00
2008,08,15,07,29,17.00
2008,08,15,07,30,17.00
2008,08,15,07,31,17.10
2008,08,15,07,32,17.10
2008,08,15,07,33,17.10
2008,08,15,07,34,17.10
2008,08,15,07,35,17.10
2008,08,15,07,36,17.10
2008,08,15,07,37,17.20
2008,08,15,07,38,17.20
2008,08,15,07,39,17.20
2008,08,15,07,40,17.20
2008,08,15,07,41,17.20
2008,08,15,07,42,17.30
2008,08,15,07,43,17.30
2008,08,15,07,44,17.30
2008,08,15,07,45,17.40
2008,08,15,07,46,17.40
2008,08,15,07,47,17.40
2008,08,15,07,48,17.50
2008,08,15,07,49,17.50
2008,08,15,07,50,17.60
2008,08,15,07,51,17.60
2008,08,15,07,52,17.60
2008,08,15,07,53,17.70
2008,08,15,07,54,17.70
2008,08,15,07,55,17.70
2008,08,15,07,56,17.80
2008,08,15,07,57,17.80
2008,08,15,07,58,17.80
2008,08,15,07,59,17.80
2008,08,15,08,00,17.90
2008,08,15,08,01,17.90
2008,08,15,08,02,18.00
2008,08,15,08,03,18.00
2008,08,15,08,04,18.10
2008,08,15,08,05,18.10
2008,08,15,08,06,18.10
2008,08,15,08,07,18.20
2008,08,15,08,08,18.20
2008,08,15,08,09,18.20
2008,08,15,08,10,18.30
2008,08,15,08,11,18.30
2008,08,15,08,12,18.30
2008,08,15,08,13,18.30
2008,08,15,08,14,18.40
2008,08,15,08,15,18.40
2008,08,15,08,16,18.50
2008,08,15,08,17,18.50
2008,08,15,08,18,18.60
2008,08,15,08,19,18.60
2008,08,15,08,20,18.60
2008,08,15,08,21,18.70
2008,08,15,08,22,18.70
2008,08,15,08,23,18.70
2008,08,15,08,24,18.70
2008,08,15,08,25,18.70
2008,08,15,08,26,18.80
2008,08,15,08,27,18.80
2008,08,15,08,28,18.80
2008,08,15,08,29,18.80
2008,08,15,08,30,18.80
2008,08,15,08,31,18.90
2008,08,15,08,32,18.90
2008,08,15,08,33,18.90
2008,08,15,08,34,19.00
2008,08,15,08,35,19.00
2008,08,15,08,36,19.10
2008,08,15,08,37,19.10
2008,08,15,08,38,19.10
2008,08,15,08,39,19.20
2008,08,15,08,40,19.20
2008,08,15,08,41,19.30
2008,08,15,08,42,19.30
2008,08,15,08,43,19.30
2008,08,15,08,44,19.40
2008,08,15,08,45,19.40
2008,08,15,08,46,19.40
2008,08,15,08,47,19.50
2008,08,15,08,48,19.60
2008,08,15,08,49,19.60
2008,08,15,08,50,19.60
2008,08,15,08,51,19.70
2008,08,15,08,52,19.70
2008,08,15,08,53,19.70
2008,08,15,08,54,19.70
2008,08,15,08,55,19.80
2008,08,15,08,56,19.80
2008,08,15,08,57,19.80
2008,08,15,08,58,19.80
2008,08,15,08,59,19.80
2008,08,15,09,00,19.80
2008,08,15,09,01,19.80
2008,08,15,09,02,19.80
2008,08,15,09,03,19.80
2008,08,15,09,04,19.80
2008,08,15,09,05,19.80
2008,08,15,09,06,19.80
2008,08,15,09,07,19.80
2008,08,15,09,08,19.80
2008,08,15,09,09,19.70
2008,08,15,09,10,19.70
2008,08,15,09,11,19.70
2008,08,15,09,12,19.70
2008,08,15,09,13,19.70
2008,08,15,09,14,19.70
2008,08,15,09,15,19.70
2008,08,15,09,16,19.70
2008,08,15,09,17,19.70
2008,08,15,09,18,19.70
2008,08,15,09,19,19.70
2008,08,15,09,20,19.70
2008,08,15,09,21,19.70
2008,08,15,09,22,19.70
2008,08,15,09,23,19.70
2008,08,15,09,24,19.70
2008,08,15,09,25,19.70
2008,08,15,09,26,19.70
2008,08,15,09,27,19.80
2008,08,15,09,28,19.80
2008,08,15,09,29,19.80
2008,08,15,09,30,19.80
2008,08,15,09,31,19.90
2008,08,15,09,32,19.90
2008,08,15,09,33,19.90
2008,08,15,09,34,19.90
2008,08,15,09,35,20.00
2008,08,15,09,36,20.00
2008,08,15,09,37,20.00
2008,08,15,09,38,20.00
2008,08,15,09,39,20.10
2008,08,15,09,40,20.10
2008,08,15,09,41,20.10
2008,08,15,09,42,20.20
2008,08,15,09,43,20.20
2008,08,15,09,44,20.30
2008,08,15,09,45,20.30
2008,08,15,09,46,20.30
2008,08,15,09,47,20.40
2008,08,15,09,48,20.40
2008,08,15,09,49,20.50
2008,08,15,09,50,20.60
2008,08,15,09,51,20.60
2008,08,15,09,52,20.70
2008,08,15,09,53,20.80
2008,08,15,09,54,20.80
2008,08,15,09,55,20.90
2008,08,15,09,56,21.00
2008,08,15,09,57,21.10
2008,08,15,09,58,21.20
2008,08,15,09,59,21.30
2008,08,15,10,00,21.40
2008,08,15,10,01,21.50
2008,08,15,10,02,21.50
2008,08,15,10,03,21.60
2008,08,15,10,04,21.70
2008,08,15,10,05,21.80
2008,08,15,10,06,21.80
2008,08,15,10,07,21.90
2008,08,15,10,08,21.90
2008,08,15,10,09,22.00
2008,08,15,10,10,22.10
2008,08,15,10,11,22.10
2008,08,15,10,12,22.20
2008,08,15,10,13,22.10
2008,08,15,10,14,22.10
2008,08,15,10,15,22.10
2008,08,15,10,16,22.10
2008,08,15,10,17,22.10
2008,08,15,10,18,22.20
2008,08,15,10,19,22.20
2008,08,15,10,20,22.20
2008,08,15,10,21,22.10
2008,08,15,10,22,22.10
2008,08,15,10,23,22.10
2008,08,15,10,24,22.10
2008,08,15,10,25,22.10
2008,08,15,10,26,22.10
2008,08,15,10,27,22.10
2008,08,15,10,28,22.10
2008,08,15,10,29,22.00
2008,08,15,10,30,22.00
2008,08,15,10,31,22.00
2008,08,15,10,32,21.90
2008,08,15,10,33,21.80
2008,08,15,10,34,21.80
2008,08,15,10,35,21.80
2008,08,15,10,36,21.70
2008,08,15,10,37,21.70
2008,08,15,10,38,21.70
2008,08,15,10,39,21.70
2008,08,15,10,40,21.70
2008,08,15,10,41,21.70
2008,08,15,10,42,21.70
2008,08,15,10,43,21.70
2008,08,15,10,44,21.80
2008,08,15,10,45,21.80
2008,08,15,10,46,21.80
2008,08,15,10,47,21.80
2008,08,15,10,48,21.80
2008,08,15,10,49,21.80
2008,08,15,10,50,21.70
2008,08,15,10,51,21.60
2008,08,15,10,52,21.60
2008,08,15,10,53,21.50
2008,08,15,10,54,21.50
2008,08,15,10,55,21.50
2008,08,15,10,56,21.50
2008,08,15,10,57,21.40
2008,08,15,10,58,21.40
2008,08,15,10,59,21.40
2008,08,15,11,00,21.30
2008,08,15,11,01,21.30
2008,08,15,11,02,21.30
2008,08,15,11,03,21.30
2008,08,15,11,04,21.30
2008,08,15,11,05,21.30
2008,08,15,11,06,21.30
2008,08,15,11,07,21.30
2008,08,15,11,08,21.30
2008,08,15,11,09,21.40
2008,08,15,11,10,21.40
2008,08,15,11,11,21.40
2008,08,15,11,12,21.40
2008,08,15,11,13,21.40
2008,08,15,11,14,21.40
2008,08,15,11,15,21.40
2008,08,15,11,16,21.40
2008,08,15,11,17,21.40
2008,08,15,11,18,21.40
2008,08,15,11,19,21.40
2008,08,15,11,20,21.40
2008,08,15,11,21,21.40
2008,08,15,11,22,21.40
2008,08,15,11,23,21.40
2008,08,15,11,24,21.40
2008,08,15,11,25,21.40
2008,08,15,11,26,21.40
2008,08,15,11,27,21.40
2008,08,15,11,28,21.40
2008,08,15,11,29,21.40
2008,08,15,11,30,21.50
2008,08,15,11,31,21.50
2008,08,15,11,32,21.50
2008,08,15,11,33,21.50
2008,08,15,11,34,21.40
2008,08,15,11,35,21.40
2008,08,15,11,36,21.30
2008,08,15,11,37,21.30
2008,08,15,11,38,21.30
2008,08,15,11,39,21.30
2008,08,15,11,40,21.20
2008,08,15,11,41,21.20
2008,08,15,11,42,21.10
2008,08,15,11,43,21.00
2008,08,15,11,44,20.90
2008,08,15,11,45,20.90
2008,08,15,11,46,20.80
2008,08,15,11,47,20.70
2008,08,15,11,48,20.60
2008,08,15,11,49,20.50
2008,08,15,11,50,20.40
2008,08,15,11,51,20.40
2008,08,15,11,52,20.30
2008,08,15,11,53,20.30
2008,08,15,11,54,20.30
2008,08,15,11,55,20.20
2008,08,15,11,56,20.20
2008,08,15,11,57,20.10
2008,08,15,11,58,20.10
2008,08,15,11,59,20.10
2008,08,15,12,00,20.00
2008,08,15,12,01,20.00
2008,08,15,12,02,20.00
2008,08,15,12,03,20.00
2008,08,15,12,04,20.00
2008,08,15,12,05,19.90
2008,08,15,12,06,19.90
2008,08,15,12,07,19.90
2008,08,15,12,08,19.90
2008,08,15,12,09,19.80
2008,08,15,12,10,19.80
2008,08,15,12,11,19.80
2008,08,15,12,12,19.70
2008,08,15,12,13,19.70
2008,08,15,12,14,19.70
2008,08,15,12,15,19.70
2008,08,15,12,16,19.70
2008,08,15,12,17,19.70
2008,08,15,12,18,19.70
2008,08,15,12,19,19.70
2008,08,15,12,20,19.70
2008,08,15,12,21,19.70
2008,08,15,12,22,19.70
2008,08,15,12,23,19.70
2008,08,15,12,24,19.60
2008,08,15,12,25,19.60
2008,08,15,12,26,19.60
2008,08,15,12,27,19.60
2008,08,15,12,28,19.60
2008,08,15,12,29,19.60
2008,08,15,12,30,19.60
2008,08,15,12,31,19.50
2008,08,15,12,32,19.50
2008,08,15,12,33,19.40
2008,08,15,12,34,19.40
2008,08,15,12,35,19.40
2008,08,15,12,36,19.40
2008,08,15,12,37,19.40
2008,08,15,12,38,19.40
2008,08,15,12,39,19.40
2008,08,15,12,40,19.40
2008,08,15,12,41,19.40
2008,08,15,12,42,19.50
2008,08,15,12,43,19.50
2008,08,15,12,44,19.50
2008,08,15,12,45,19.60
2008,08,15,12,46,19.60
2008,08,15,12,47,19.70
2008,08,15,12,48,19.70
2008,08,15,12,49,19.80
2008,08,15,12,50,19.80
2008,08,15,12,51,19.90
2008,08,15,12,52,19.90
2008,08,15,12,53,19.90
2008,08,15,12,54,19.90
2008,08,15,12,55,19.90
2008,08,15,12,56,19.90
2008,08,15,12,57,19.90
2008,08,15,12,58,19.90
2008,08,15,12,59,19.90
2008,08,15,13,00,19.90
2008,08,15,13,01,20.00
2008,08,15,13,02,20.00
2008,08,15,13,03,20.10
2008,08,15,13,04,20.10
2008,08,15,13,05,20.10
2008,08,15,13,06,20.20
2008,08,15,13,07,20.30
2008,08,15,13,08,20.30
2008,08,15,13,09,20.40
2008,08,15,13,10,20.50
2008,08,15,13,11,20.60
2008,08,15,13,12,20.80
2008,08,15,13,13,20.90
2008,08,15,13,14,21.00
2008,08,15,13,15,21.20
2008,08,15,13,16,21.30
2008,08,15,13,17,21.50
2008,08,15,13,18,21.60
2008,08,15,13,19,21.80
2008,08,15,13,20,21.90
2008,08,15,13,21,22.10
2008,08,15,13,22,22.30
2008,08,15,13,23,22.40
2008,08,15,13,24,22.60
2008,08,15,13,25,22.80
2008,08,15,13,26,22.90
2008,08,15,13,27,23.10
2008,08,15,13,28,23.20
2008,08,15,13,29,23.30
2008,08,15,13,30,23.40
2008,08,15,13,31,23.40
2008,08,15,13,32,23.50
2008,08,15,13,33,23.60
2008,08,15,13,34,23.70
2008,08,15,13,35,23.80
2008,08,15,13,36,23.90
2008,08,15,13,37,23.90
2008,08,15,13,38,23.90
2008,08,15,13,39,23.80
2008,08,15,13,40,23.60
2008,08,15,13,41,23.50
2008,08,15,13,42,23.30
2008,08,15,13,43,23.00
2008,08,15,13,44,22.80
2008,08,15,13,45,22.50
2008,08,15,13,46,22.20
2008,08,15,13,47,22.00
2008,08,15,13,48,21.80
2008,08,15,13,49,21.70
2008,08,15,13,50,21.60
2008,08,15,13,51,21.60
2008,08,15,13,52,21.50
2008,08,15,13,53,21.50
2008,08,15,13,54,21.40
2008,08,15,13,55,21.40
2008,08,15,13,56,21.40
2008,08,15,13,57,21.40
2008,08,15,13,58,21.40
2008,08,15,13,59,21.40
2008,08,15,14,00,21.50
2008,08,15,14,01,21.50
2008,08,15,14,02,21.60
2008,08,15,14,03,21.70
2008,08,15,14,04,21.70
2008,08,15,14,05,21.80
2008,08,15,14,06,22.00
2008,08,15,14,07,22.20
2008,08,15,14,08,22.30
2008,08,15,14,09,22.50
2008,08,15,14,10,22.60
2008,08,15,14,11,22.70
2008,08,15,14,12,22.80
2008,08,15,14,13,22.90
2008,08,15,14,14,23.00
2008,08,15,14,15,23.10
2008,08,15,14,16,23.30
2008,08,15,14,17,23.40
2008,08,15,14,18,23.50
2008,08,15,14,19,23.60
2008,08,15,14,20,23.70
2008,08,15,14,21,23.90
2008,08,15,14,22,24.00
2008,08,15,14,23,24.10
2008,08,15,14,24,24.20
2008,08,15,14,25,24.40
2008,08,15,14,26,24.50
2008,08,15,14,27,24.60
2008,08,15,14,28,24.80
2008,08,15,14,29,25.00
2008,08,15,14,30,25.20
2008,08,15,14,31,25.30
2008,08,15,14,32,25.50
2008,08,15,14,33,25.70
2008,08,15,14,34,25.80
2008,08,15,14,35,25.90
2008,08,15,14,36,25.90
2008,08,15,14,37,26.00
2008,08,15,14,38,26.10
2008,08,15,14,39,26.20
2008,08,15,14,40,26.30
2008,08,15,14,41,26.30
2008,08,15,14,42,26.40
2008,08,15,14,43,26.40
2008,08,15,14,44,26.50
2008,08,15,14,45,26.60
2008,08,15,14,46,26.60
2008,08,15,14,47,26.60
2008,08,15,14,48,26.60
2008,08,15,14,49,26.60
2008,08,15,14,50,26.60
2008,08,15,14,51,26.60
2008,08,15,14,52,26.60
2008,08,15,14,53,26.60
2008,08,15,14,54,26.60
2008,08,15,14,55,26.60
2008,08,15,14,56,26.70
2008,08,15,14,57,26.60
2008,08,15,14,58,26.60
2008,08,15,14,59,26.70
2008,08,15,15,00,26.70
2008,08,15,15,01,26.70
2008,08,15,15,02,26.70
2008,08,15,15,03,26.70
2008,08,15,15,04,26.70
2008,08,15,15,05,26.80
2008,08,15,15,06,26.90
2008,08,15,15,07,26.90
2008,08,15,15,08,27.00
2008,08,15,15,09,27.00
2008,08,15,15,10,27.00
2008,08,15,15,11,27.10
2008,08,15,15,12,27.10
2008,08,15,15,13,27.10
2008,08,15,15,14,27.10
2008,08,15,15,15,27.10
2008,08,15,15,16,27.20
2008,08,15,15,17,27.10
2008,08,15,15,18,27.00
2008,08,15,15,19,26.90
2008,08,15,15,20,26.80
2008,08,15,15,21,26.70
2008,08,15,15,22,26.50
2008,08,15,15,23,26.30
2008,08,15,15,24,26.00
2008,08,15,15,25,25.90
2008,08,15,15,26,25.80
2008,08,15,15,27,25.80
2008,08,15,15,28,25.80
2008,08,15,15,29,25.90
2008,08,15,15,30,25.90
2008,08,15,15,31,25.90
2008,08,15,15,32,25.90
2008,08,15,15,33,25.90
2008,08,15,15,34,25.90
2008,08,15,15,35,25.90
2008,08,15,15,36,25.90
2008,08,15,15,37,26.00
2008,08,15,15,38,26.20
2008,08,15,15,39,26.30
2008,08,15,15,40,26.40
2008,08,15,15,41,26.60
2008,08,15,15,42,26.70
2008,08,15,15,43,26.90
2008,08,15,15,44,27.10
2008,08,15,15,45,27.20
2008,08,15,15,46,27.40
2008,08,15,15,47,27.60
2008,08,15,15,48,27.80
2008,08,15,15,49,27.90
2008,08,15,15,50,28.10
2008,08,15,15,51,28.10
2008,08,15,15,52,28.20
2008,08,15,15,53,28.30
2008,08,15,15,54,28.40
2008,08,15,15,55,28.50
2008,08,15,15,56,28.50
2008,08,15,15,57,28.60
2008,08,15,15,58,28.60
2008,08,15,15,59,28.70
2008,08,15,16,00,28.70
2008,08,15,16,01,28.70
2008,08,15,16,02,28.80
2008,08,15,16,03,28.80
2008,08,15,16,04,28.90
2008,08,15,16,05,29.00
2008,08,15,16,06,29.10
2008,08,15,16,07,29.20
2008,08,15,16,08,29.30
2008,08,15,16,09,29.40
2008,08,15,16,10,29.50
2008,08,15,16,11,29.60
2008,08,15,16,12,29.70
2008,08,15,16,13,29.80
2008,08,15,16,14,29.90
2008,08,15,16,15,30.00
2008,08,15,16,16,30.10
2008,08,15,16,17,30.10
2008,08,15,16,18,30.10
2008,08,15,16,19,30.00
2008,08,15,16,20,29.90
2008,08,15,16,21,29.80
2008,08,15,16,22,29.80
2008,08,15,16,23,29.70
2008,08,15,16,24,29.70
2008,08,15,16,25,29.70
2008,08,15,16,26,29.70
2008,08,15,16,27,29.60
2008,08,15,16,28,29.60
2008,08,15,16,29,29.60
2008,08,15,16,30,29.60
2008,08,15,16,31,29.60
2008,08,15,16,32,29.60
2008,08,15,16,33,29.60
2008,08,15,16,34,29.50
2008,08,15,16,35,29.50
2008,08,15,16,36,29.40
2008,08,15,16,37,29.40
2008,08,15,16,38,29.40
2008,08,15,16,39,29.30
2008,08,15,16,40,29.20
2008,08,15,16,41,29.10
2008,08,15,16,42,29.00
2008,08,15,16,43,28.90
2008,08,15,16,44,28.80
2008,08,15,16,45,28.70
2008,08,15,16,46,28.70
2008,08,15,16,47,28.60
2008,08,15,16,48,28.60
2008,08,15,16,49,28.50
2008,08,15,16,50,28.50
2008,08,15,16,51,28.50
2008,08,15,16,52,28.40
2008,08,15,16,53,28.40
2008,08,15,16,54,28.40
2008,08,15,16,55,28.30
2008,08,15,16,56,28.30
2008,08,15,16,57,28.30
2008,08,15,16,58,28.30
2008,08,15,16,59,28.30
2008,08,15,17,00,28.30
2008,08,15,17,01,28.30
2008,08,15,17,02,28.40
2008,08,15,17,03,28.50
2008,08,15,17,04,28.60
2008,08,15,17,05,28.60
2008,08,15,17,06,28.70
2008,08,15,17,07,28.80
2008,08,15,17,08,28.90
2008,08,15,17,09,28.90
2008,08,15,17,10,29.00
2008,08,15,17,11,29.00
2008,08,15,17,12,29.00
2008,08,15,17,13,29.00
2008,08,15,17,14,29.10
2008,08,15,17,15,29.10
2008,08,15,17,16,29.10
2008,08,15,17,17,29.20
2008,08,15,17,18,29.20
2008,08,15,17,19,29.30
2008,08,15,17,20,29.30
2008,08,15,17,21,29.30
2008,08,15,17,22,29.30
2008,08,15,17,23,29.30
2008,08,15,17,24,29.30
2008,08,15,17,25,29.30
2008,08,15,17,26,29.30
2008,08,15,17,27,29.30
2008,08,15,17,28,29.30
2008,08,15,17,29,29.30
2008,08,15,17,30,29.30
2008,08,15,17,31,29.40
2008,08,15,17,32,29.40
2008,08,15,17,33,29.40
2008,08,15,17,34,29.40
2008,08,15,17,35,29.40
2008,08,15,17,36,29.50
2008,08,15,17,37,29.50
2008,08,15,17,38,29.50
2008,08,15,17,39,29.50
2008,08,15,17,40,29.60
2008,08,15,17,41,29.60
2008,08,15,17,42,29.70
2008,08,15,17,43,29.70
2008,08,15,17,44,29.80
2008,08,15,17,45,29.90
2008,08,15,17,46,29.90
2008,08,15,17,47,30.00
2008,08,15,17,48,30.00
2008,08,15,17,49,30.10
2008,08,15,17,50,30.20
2008,08,15,17,51,30.30
2008,08,15,17,52,30.40
2008,08,15,17,53,30.40
2008,08,15,17,54,30.40
2008,08,15,17,55,30.40
2008,08,15,17,56,30.30
2008,08,15,17,57,29.90
2008,08,15,17,58,29.40
2008,08,15,17,59,28.90
2008,08,15,18,00,28.50
2008,08,15,18,01,28.10
2008,08,15,18,02,27.80
2008,08,15,18,03,27.50
2008,08,15,18,04,27.20
2008,08,15,18,05,26.90
2008,08,15,18,06,26.70
2008,08,15,18,07,26.40